Location: Chippewa Lake
(41.0698°N, 81.9010°W)
Time: 12:19:03
(UTC+00:00)

Envisat - Pass Details

Date: 03 June 2023
Orbit: 763 x 764 km, 98.2° (Epoch: 21 September)

Event Time Altitude Azimuth Distance (km) Brightness Sun altitude
Rises 09:08:05 0° 15° (NNE) 3,237 7.2 -8.3°
Reaches altitude 10° 09:10:25 10° 19° (NNE) 2,307 6.5 -8.0°
Maximum altitude 09:15:28 67° 101° (ESE) 831 3.4 -7.2°
Drops below altitude 10° 09:20:29 10° 184° (S) 2,292 5.1 -6.5°
Sets 09:22:48 0° 187° (S) 3,214 5.8 -6.2°
